Weather History for KHTS - May, 2012

Change the Weather History Date:

Monday, May 21, 2012

  Actual Average Record
Temperature  
Mean Temperature 72 °F 65 °F  
Max Temperature 86 °F 76 °F 95 °F (1934)
Min Temperature 57 °F 54 °F 35 °F (1954)
Degree Days  
Heating Degree Days 0 3  
Month to date heating degree days 34 91  
Since 1 July heating degree days 3648 4479  
Cooling Degree Days 7 3  
Month to date cooling degree days 75 43  
Year to date cooling degree days 132 75  
Growing Degree Days 22 (Base 50)    
Moisture  
Dew Point 58 °F    
Average Humidity 69    
Maximum Humidity 100    
Minimum Humidity 37    
Precipitation  
Precipitation 0.00 in 0.16 in 1.53 in (1933)
Month to date precipitation 3.61 3.12  
Year to date precipitation 13.31 16.50  
Snow  
Snow 0.00 in - - ()
Month to date snowfall 0.0  
Since 1 September snowfall 5.5  
Snow Depth 0.00 in    
Sea Level Pressure  
Sea Level Pressure 29.97 in    
Wind  
Wind Speed 3 mph (SW)    
Max Wind Speed 14 mph    
Max Gust Speed 21 mph    
Visibility 8 miles    
Events Thunderstorm    
T = Trace of Precipitation, MM = Missing Value Source: NWS Daily Summary

Daily Weather History Graph

Daily Weather History Graph

Search for Another Location

Airport or City:

Trip Planner

Search our weather history database for the weather conditions in past years. The results will help you decide how hot, cold, wet, or windy it might be!

Date:

Astronomy

May. 21, 2012 Rise Set
Actual Time 6:13 AM EDT 8:40 PM EDT
Civil Twilight 5:43 AM EDT 9:10 PM EDT
Nautical Twilight 5:06 AM EDT 9:48 PM EDT
Astronomical Twilight 4:24 AM EDT 10:29 PM EDT
Moon 6:36 AM EDT (5/21) 9:29 PM EDT (5/21)
Length of Visible Light 15h 26m
Length of Day
14h 26m
New Moon, 0% of the Moon is Illuminated
May 21
New Moon
May 28
First Quarter
Jun 4
Full
Jun 11
Last Quarter
Jun 19
New

Hourly Weather History & Observations

Time (EDT) Temp. Heat Index Dew Point Humidity Pressure Visibility Wind Dir Wind Speed Gust Speed Precip Events Conditions
12:51 AM 62.1 °F - 61.0 °F 96% 30.01 in 8.0 mi Calm Calm - N/A   Clear
1:51 AM 61.0 °F - 60.1 °F 97% 30.01 in 5.0 mi Calm Calm - N/A   Clear
2:51 AM 60.1 °F - 59.0 °F 96% 30.00 in 6.0 mi SW 3.5 mph - N/A   Mostly Cloudy
3:51 AM 60.1 °F - 59.0 °F 96% 30.01 in 3.0 mi ESE 4.6 mph - N/A   Mostly Cloudy
4:51 AM 59.0 °F - 57.9 °F 96% 30.00 in 8.0 mi Calm Calm - N/A   Clear
4:58 AM 59.0 °F - 57.2 °F 94% 30.02 in 1.8 mi East 3.5 mph - N/A   Clear
5:13 AM 57.2 °F - 57.2 °F 100% 30.01 in 3.0 mi ESE 3.5 mph - N/A   Clear
5:51 AM 57.9 °F - 57.0 °F 97% 30.01 in 5.0 mi WSW 4.6 mph - N/A   Clear
6:13 AM 57.2 °F - 57.2 °F 100% 30.02 in 2.0 mi Calm Calm - N/A   Partly Cloudy
6:22 AM 57.2 °F - 55.4 °F 94% 30.02 in 1.8 mi Calm Calm - N/A   Partly Cloudy
6:30 AM 57.2 °F - 57.2 °F 100% 30.02 in 3.0 mi Calm Calm - N/A   Partly Cloudy
6:36 AM 57.2 °F - 57.2 °F 100% 30.02 in 1.5 mi Calm Calm - N/A   Partly Cloudy
6:51 AM 57.9 °F - 57.9 °F 100% 30.01 in 1.2 mi Calm Calm - N/A   Clear
6:57 AM 57.2 °F - 57.2 °F 100% 30.02 in 3.0 mi Calm Calm - N/A   Clear
7:51 AM 63.0 °F - 60.1 °F 90% 30.00 in 10.0 mi Calm Calm - N/A   Clear
8:51 AM 69.1 °F - 62.1 °F 78% 30.00 in 10.0 mi Calm Calm - N/A   Clear
9:51 AM 71.1 °F - 61.0 °F 70% 30.00 in 10.0 mi South 3.5 mph - N/A   Clear
10:51 AM 77.0 °F - 61.0 °F 58% 29.99 in 10.0 mi Variable 4.6 mph - N/A   Clear
11:24 AM 78.8 °F - 62.6 °F 57% 30.00 in 10.0 mi Variable 3.5 mph - N/A Thunderstorm Thunderstorm
11:31 AM 78.8 °F - 60.8 °F 54% 30.00 in 10.0 mi SSW 3.5 mph - N/A   Clear
11:51 AM 80.1 °F 80.9 °F 60.1 °F 50% 29.98 in 10.0 mi Variable 4.6 mph - N/A   Clear
12:51 PM 82.0 °F 81.6 °F 55.9 °F 41% 29.96 in 10.0 mi NW 4.6 mph - N/A   Clear
1:51 PM 84.0 °F 82.9 °F 55.0 °F 37% 29.94 in 10.0 mi Calm Calm - N/A   Clear
2:51 PM 84.0 °F 83.3 °F 57.0 °F 40% 29.92 in 10.0 mi Calm Calm - N/A   Clear
3:51 PM 84.9 °F 83.6 °F 55.0 °F 36% 29.90 in 10.0 mi Variable 3.5 mph - N/A   Clear
4:51 PM 82.0 °F 81.3 °F 54.0 °F 38% 29.87 in 10.0 mi Calm Calm - N/A   Clear
5:51 PM 80.1 °F 80.9 °F 60.1 °F 50% 29.86 in 10.0 mi Calm Calm - N/A   Clear
6:51 PM 75.0 °F - 63.0 °F 66% 29.88 in 10.0 mi WSW 8.1 mph - N/A   Clear
7:51 PM 72.0 °F - 59.0 °F 64% 29.89 in 10.0 mi WNW 10.4 mph - N/A   Clear
8:51 PM 69.1 °F - 57.0 °F 65% 29.91 in 10.0 mi West 4.6 mph - N/A   Clear
9:51 PM 66.9 °F - 57.0 °F 70% 29.91 in 10.0 mi West 3.5 mph - N/A   Clear
10:51 PM 64.9 °F - 57.0 °F 75% 29.91 in 10.0 mi SW 5.8 mph - N/A   Clear
11:51 PM 64.0 °F - 57.9 °F 80% 29.91 in 10.0 mi SSW 4.6 mph - N/A   Clear